国际通讯卫星 7星 (INTELSAT 7 (IS-7))

导读 | 豆包AI

INTELSAT 7(PAS 7)是由美国参与发射的商用通信卫星,隶属于国际通信卫星组织第七代卫星系列,于1998年9月16日发射升空。该卫星基于成熟的卫星平台研制,设计上相比前代更紧凑,主要服务于太平洋、大西洋区域的通信覆盖,可提供跨洋通信、广播电视传输等服务,支撑了全球商业通信网络的覆盖延伸,是九十年代末国际卫星通信布局的重要组成部分,助力了全球互联互通能力提升。

Basic Information
目录编号:
25473
目录名称:
INTELSAT 7 (PAS 7)
国际标识:
1998-052A
轨道中心:
EARTH
卫星名称:
国际通讯卫星 7星
卫星全名:
国际通讯卫星 7星 (INTELSAT 7 (IS-7))
卫星状态:
在轨 (已飞行10088 天)
发射日期:
1998-09-16 UTC
国别 :
美国 (US)
星等 :
--
Orbit Information
数据来源 国际轨道数据 AOE轨道数据
星历时间 2026-04-30T01:40:39+0800
1天前
查看轨道信息
2026-05-01T00:00:00+0800
4小时前
查看轨道信息
半长轴 42752.379km 42752.524km
偏心率 0.0004838 0.0004793
轨道倾角 10.335° 10.336°
近地点辐角 196.475° 196.238°
升交点赤经 52.567° 52.559°
平近点角 354.094° 323.194°
近地点 36353.558km 36353.895km
远地点 36394.926km 36394.879km
周期 1466.223分钟 1466.231分钟
每日圈数 0.982115 0.98211
Detailed Information
卫星平台:
HS-601HP
平衡模式:
三轴稳定
覆盖范围:
全球
运营商:
国际卫星通信公司
运营商所在国:
美国
制造商(研发单位):
劳拉空间系统公司
制造商所在国:
美国
使用方式:
暂无
Satellite Introduction
从1965年4月至1984年3月,国际通信卫星组织发射了5代、6种不同性能的卫星共计35颗,除6颗卫星因运载火箭和远地点发动机故障而发射失败外,其余29颗卫星均被送到了预定的静止轨道位置。1984年8月前后,国际通信卫星组织利用部署在大西洋、太平洋、印度洋上空的15颗国际通信卫星,为遍布世界各地170多个国家或地区提供电话、电传、电报、电视和数据传输等电信业务;该卫星已退役。
2D Orbit Map
3D Orbit Map
Orbit Altitude Analysis Chart
Orbit Inclination Analysis Chart
Orbit Comprehensive Analysis Chart
View Comprehensive Chart